FENGYUN 1C DEB, 38172

Orbit data source: Space-Track

FENGYUN 1C DEB, 38172 is space debris in SSO originally from a launch on Mon, 10 May 1999 UTC launched from the Taiyaun Space Center, China (TSC). Fengyun 1C debris stems from the Chinese weather satellite Fengyun-1C, which was intentionally destroyed by a Chinese anti-satellite missile in 2007. This event dramatically increased the amount of space debris, with thousands of trackable fragments posing hazards to satellites and human spaceflight. The Fengyun 1C debris cloud has become a focal point in discussions about space sustainability and the need for international regulations to prevent the creation of new debris.

Loading next visibility...
Identifier
38172, 1999-025ERV
Orbit
SSO
Country
Flag of CNCN / PRC
Related business
Manufacturer
Unknown
Mission
Spacecraft
Bus & Motor
Unknown
Mass
Unknown
Launch date (UTC)
1999-05-10 (27 years ago)
Launch vehicle
Unknown
Launch site
Taiyaun Space Center, China (TSC)
Object type
Payload
Rocket body
Debris
Shape & HBR
Unknown shape, 0.1 m
Radar Cross Section
Medium (>0.1 m² and <1 m²)

Expand to show TLE details & history
Last TLE update: 1 week ago

TLE from 1 week ago
0 FENGYUN 1C DEB
1 38172U 99025ERV 26169.08635017  .00000476  00000-0  59660-3 0  9996
2 38172 100.4271 275.8013 0279171 229.9272 127.7080 13.54922710642094
Epoch: 2026-06-18T02:04Z
TLE epoch observation values (Epoch: 2026-06-18T02:04:20.654Z)
Latitude
0.00002°
Longitude
-21.61949°
Altitude
1,187.434 km
Speed
7.196 km/s
True Right ascension
18h 23m 12s
True Declination
0° 00' 00"
Sunlit
Object was in full shadow at epoch
Visualization orbit readout
Latitude
Unknown
Longitude
Unknown
Altitude
Unknown
Speed
Unknown
Apparent Right ascension
Unknown
Apparent Declination
Unknown
Sunlit
N/A
Visualization observer readout
Local Sidereal Time
15:23:12
Azimuth
Unknown
Elevation
Unknown
Doppler factor
Unknown
Orbital elements
Apogee altitude
1,258.947 km
Perigee altitude
844.117 km
Semi-major axis
7,429.669 km
Eccentricity
0.02792
Inclination
100.4271°
RAAN
275.8013°
Arg. of periapsis
229.9272°
True anomaly
130.1852°
Mean anomaly
127.708°
Eccentric anomaly
128.95191°
Mean motion
3.38914 °/min
Orbital period
106.22 mins
BSTAR
0.0005966
Loading maneuver chart data...
Computing Atmospheric mass density...

Documentation

Showing up to 5 results
|